Regional Weather Roundup
Issued by NWS

Home | Current Version | Previous Version | Graphics & Text | Print | Product List | Glossary On
Versions: 1 2 3 4 5 6 7 8 9 10 11 12 13 14 15 16 17 18 19 20 21 22 23 24 25 26 27 28 29 30 31 32 33 34 35 36 37 38 39 40 41 42 43 44 45 46 47 48 49 50
000
ASUS43 KOAX 170302
RWRNE

WEATHER ROUNDUP FOR NEBRASKA
NATIONAL WEATHER SERVICE OMAHA NE
1000 PM CDT MON OCT 16 2017

NOTES: SATELLITE DATA IS BEING USED TO AUGMENT CLOUD COVER ABOVE
       12000 FEET.
       "FAIR" INDICATES FEW OR NO CLOUDS BELOW 12,000 FEET WITH NO
       SIGNIFICANT WEATHER AND/OR OBSTRUCTIONS TO VISIBILITY.


NEZ001>004-019>022-054>056-170400-
NEBRASKA PANHANDLE

CITY           SKY/WX    TMP DP  RH WIND       PRES   REMARKS
SCOTTSBLUFF    CLEAR     43  27  53 N5        30.18R
ALLIANCE       CLEAR     39  27  62 W6        30.16R WCI  35
CHADRON        CLEAR     43  28  55 W7        30.13S
GORDON         FAIR      38  31  77 W3        30.13S
KIMBALL        CLOUDY    47  22  37 NW5       30.23S
SIDNEY         CLEAR     48  23  37 W3        30.20R
$$

NEZ057>060-069>072-079>082-170400-
SOUTHWEST NEBRASKA

CITY           SKY/WX    TMP DP  RH WIND       PRES   REMARKS
NORTH PLATTE   CLEAR     43  38  82 NW5       30.10R
IMPERIAL       CLEAR     51  31  46 W5        30.14R
LEXINGTON      CLEAR     58  37  44 S7        30.08S
MCCOOK         PTCLDY    58  39  49 SW8       30.10R
OGALLALA       CLEAR     50  33  51 S3        30.13R
$$

NEZ005>010-023>029-035>040-094-170400-
NORTH CENTRAL NEBRASKA

CITY           SKY/WX    TMP DP  RH WIND       PRES   REMARKS
VALENTINE      CLEAR     44  34  67 CALM      30.09R
AINSWORTH      CLEAR     51  37  58 CALM      30.08S
BROKEN BOW     CLEAR     52  38  58 CALM      30.06S
O`NEILL        CLEAR     52  41  68 CALM      30.06R
ORD            CLEAR     53  37  54 S6        30.05R
THEDFORD       PTCLDY    51  30  45 CALM      30.11R
$$

NEZ041-046>049-061>064-073>077-083>087-170400-
SOUTH CENTRAL NEBRASKA

CITY           SKY/WX    TMP DP  RH WIND       PRES   REMARKS
GRAND ISLAND   PTCLDY    58  38  47 S15       30.08S
AURORA         PTCLDY    57  37  46 S12       30.10R
HASTINGS       PTCLDY    59  36  42 S9        30.11S
HEBRON         PTCLDY    58  40  49 S9        30.15R
HOLDREGE       MOCLDY    58  38  47 S8        30.09S
KEARNEY        CLOUDY    56  38  50 S12       30.10S
YORK           CLEAR     57  39  51 S10       30.11S
$$

NEZ011>018-030>034-042>045-170400-
NORTHEAST NEBRASKA

CITY           SKY/WX    TMP DP  RH WIND       PRES   REMARKS
NORFOLK        CLEAR     60  38  43 S17       30.05S
ALBION         CLEAR     56  39  53 SE6       30.07R
BLAIR          CLEAR     60  41  49 S14       30.11R
COLUMBUS       CLEAR     60  39  45 S13G18    30.09S
FREMONT        PTCLDY    61  40  45 S13G18    30.10S
TEKAMAH        CLEAR     58  32  37 S8        30.09R
WAYNE          PTCLDY    54  36  49 S6        30.06R
$$

NEZ050>053-065>068-078-088>093-170400-
SOUTHEAST NEBRASKA

CITY           SKY/WX    TMP DP  RH WIND       PRES   REMARKS
LINCOLN        PTCLDY    59  41  51 S13       30.14R
OMAHA EPPLEY   PTCLDY    61  40  45 S12       30.12S
BEATRICE       PTCLDY    59  41  52 S12       30.16R
FALLS CITY     CLEAR     57  40  52 S9        30.17F
NEBRASKA CITY  CLEAR     55  42  60 S12       30.16R
PLATTSMOUTH    CLEAR     56  41  58 S8        30.14R
$$

NEZ044-045-051>053-067-170400-
OMAHA AREA

CITY           SKY/WX    TMP DP  RH WIND       PRES   REMARKS
OMAHA EPPLEY   PTCLDY    61  40  45 S12       30.12S
BLAIR          CLEAR     60  41  49 S14       30.11R
FREMONT        PTCLDY    61  40  45 S13G18    30.10S
MILLARD        CLEAR     62  42  48 S5        30.13R
PLATTSMOUTH    CLEAR     56  41  58 S8        30.14R
WAHOO          FAIR      57  41  56 S9        30.11S
$$




USA.gov is the U.S. government's official web portal to all federal, state and local government web resources and services.